Mobile, AL

11:31 AM CDT on August 20, 2017 (GMT -0500)
Mobile Regional

Weather History for KMOB - November, 2011

Change the Weather History Date:

Wednesday, November 16, 2011

  Actual Average Record
Temperature  
Mean Temperature 74 °F 59 °F  
Max Temperature 82 °F 71 °F 82 °F (1985)
Min Temperature 65 °F 48 °F 24 °F (1940)
Degree Days  
Heating Degree Days 0 7  
Month to date heating degree days 82 83  
Since 1 July heating degree days 174 138  
Cooling Degree Days 9 1  
Month to date cooling degree days 30 28  
Year to date cooling degree days 2818 2490  
Growing Degree Days 23 (Base 50)    
Moisture  
Dew Point 68 °F    
Average Humidity 77    
Maximum Humidity 100    
Minimum Humidity 54    
Precipitation  
Precipitation 0.04 in 0.18 in 3.15 in (1987)
Month to date precipitation 1.07 2.75  
Year to date precipitation 46.72 58.71  
Snow  
Snow 0.00 in 0.00 in 0.00 in (2002)
Month to date snowfall 0.0 0.0  
Since 1 July snowfall 0.0 0.0  
Snow Depth 0.00 in    
Sea Level Pressure  
Sea Level Pressure 29.87 in    
Wind  
Wind Speed 11 mph (SSW)    
Max Wind Speed 25 mph    
Max Gust Speed 32 mph    
Visibility 8 miles    
Events Rain , Thunderstorm    
T = Trace of Precipitation, MM = Missing Value Source: NWS Daily Summary

Daily Weather History Graph

Daily Weather History Graph

Search for Another Location

Airport or City:

Trip Planner

Search our weather history database for the weather conditions in past years. The results will help you decide how hot, cold, wet, or windy it might be!

Date:

Astronomy

Nov. 16, 2011 Rise Set
Actual Time 6:19 AM CST 4:55 PM CST
Civil Twilight 5:54 AM CST 5:20 PM CST
Nautical Twilight 5:25 AM CST 5:49 PM CST
Astronomical Twilight 4:56 AM CST 6:18 PM CST
Moon 10:05 PM CST (11/16) 10:57 AM CST (11/16)
Length of Visible Light 11h 26m
Length of Day
10h 35m
Waning Gibbous, 70% of the Moon is Illuminated
Nov 16
Waning Gibbous
Nov 18
Last Quarter
Nov 25
New
Dec 2
First Quarter
Dec 10
Full

Hourly Weather History & Observations

Time (CST) Temp. Heat Index Dew Point Humidity Pressure Visibility Wind Dir Wind Speed Gust Speed Precip Events Conditions
12:26 AM 71.6 °F - 66.2 °F 83% 29.89 in 10.0 mi SW 5.8 mph - N/A   Overcast
12:56 AM 71.1 °F - 68.0 °F 90% 29.88 in 10.0 mi South 9.2 mph - N/A   Mostly Cloudy
1:52 AM 71.6 °F - 69.8 °F 94% 29.88 in 10.0 mi South 8.1 mph - N/A   Overcast
1:56 AM 71.6 °F - 69.8 °F 94% 29.87 in 10.0 mi South 10.4 mph - N/A   Overcast
2:29 AM 73.4 °F - 69.8 °F 88% 29.87 in 10.0 mi South 16.1 mph 24.2 mph N/A   Overcast
2:56 AM 73.9 °F - 70.0 °F 87% 29.86 in 10.0 mi SSW 12.7 mph 23.0 mph N/A   Overcast
3:56 AM 73.0 °F - 70.0 °F 90% 29.85 in 10.0 mi SSW 13.8 mph 24.2 mph N/A   Mostly Cloudy
4:08 AM 73.4 °F - 69.8 °F 88% 29.85 in 10.0 mi South 12.7 mph 21.9 mph N/A   Overcast
4:36 AM 73.4 °F - 69.8 °F 88% 29.84 in 10.0 mi SSW 18.4 mph 27.6 mph N/A   Overcast
4:56 AM 73.9 °F - 71.1 °F 91% 29.84 in 10.0 mi SSW 16.1 mph 25.3 mph N/A   Overcast
5:56 AM 73.9 °F - 70.0 °F 87% 29.84 in 10.0 mi South 13.8 mph - N/A   Mostly Cloudy
6:48 AM 73.4 °F - 71.6 °F 94% 29.85 in 7.0 mi South 16.1 mph - N/A   Overcast
6:56 AM 75.0 °F - 71.1 °F 87% 29.85 in 7.0 mi South 18.4 mph 26.5 mph N/A   Overcast
7:56 AM 75.9 °F - 71.1 °F 85% 29.86 in 7.0 mi South 13.8 mph 25.3 mph N/A   Overcast
8:56 AM 75.9 °F - 71.1 °F 85% 29.86 in 8.0 mi SSW 20.7 mph 29.9 mph N/A   Overcast
9:51 AM 75.2 °F - 71.6 °F 89% 29.87 in 5.0 mi South 18.4 mph 29.9 mph 0.00 in Rain Light Rain
9:56 AM 75.0 °F - 72.0 °F 90% 29.86 in 5.0 mi South 16.1 mph 29.9 mph 0.00 in Rain Light Rain
10:06 AM 75.2 °F - 71.6 °F 89% 29.87 in 0.8 mi SSW 13.8 mph 28.8 mph 0.01 in Rain , Thunderstorm Heavy Thunderstorms and Rain
10:10 AM 73.4 °F - 71.6 °F 94% 29.88 in 3.0 mi SSW 21.9 mph 27.6 mph 0.04 in Rain , Thunderstorm Light Thunderstorms and Rain
10:17 AM 73.4 °F - 71.6 °F 94% 29.88 in 8.0 mi SSW 19.6 mph 32.2 mph 0.04 in Rain , Thunderstorm Light Thunderstorms and Rain
10:24 AM 73.4 °F - 69.8 °F 88% 29.88 in 8.0 mi SW 18.4 mph 28.8 mph 0.04 in   Mostly Cloudy
10:35 AM 73.4 °F - 69.8 °F 88% 29.88 in 9.0 mi SW 18.4 mph 29.9 mph 0.04 in   Mostly Cloudy
10:56 AM 75.9 °F - 71.1 °F 85% 29.86 in 10.0 mi SW 10.4 mph - 0.04 in   Mostly Cloudy
11:11 AM 77.0 °F - 69.8 °F 78% 29.87 in 10.0 mi SW 15.0 mph - N/A   Mostly Cloudy
11:56 AM 80.1 °F 81.9 °F 64.9 °F 60% 29.83 in 10.0 mi WSW 13.8 mph 21.9 mph N/A   Scattered Clouds
12:56 PM 82.0 °F 83.4 °F 64.0 °F 54% 29.83 in 10.0 mi SSW 15.0 mph 19.6 mph N/A   Scattered Clouds
1:56 PM 81.0 °F 82.2 °F 63.0 °F 54% 29.82 in 10.0 mi SW 9.2 mph - N/A   Scattered Clouds
2:56 PM 80.6 °F 82.3 °F 64.4 °F 58% 29.83 in 10.0 mi SSW 11.5 mph - N/A   Mostly Cloudy
3:56 PM 75.9 °F - 64.0 °F 67% 29.83 in 10.0 mi SSW 12.7 mph - N/A   Mostly Cloudy
4:56 PM 73.0 °F - 64.0 °F 73% 29.85 in 10.0 mi SSW 8.1 mph - N/A   Mostly Cloudy
5:56 PM 70.0 °F - 64.0 °F 81% 29.87 in 10.0 mi SSW 6.9 mph - N/A   Mostly Cloudy
6:56 PM 69.1 °F - 66.0 °F 90% 29.88 in 7.0 mi SSW 5.8 mph - N/A   Partly Cloudy
7:56 PM 66.9 °F - 64.9 °F 93% 29.90 in 7.0 mi SW 5.8 mph - N/A   Clear
8:56 PM 66.2 °F - 64.4 °F 94% 29.92 in 8.0 mi Calm Calm - N/A   Clear
9:56 PM 66.0 °F - 64.0 °F 93% 29.93 in 6.0 mi West 3.5 mph - N/A   Partly Cloudy
10:56 PM 64.9 °F - 64.0 °F 97% 29.95 in 9.0 mi West 4.6 mph - N/A   Partly Cloudy
11:56 PM 64.9 °F - 63.0 °F 93% 29.98 in 10.0 mi NNW 12.7 mph 21.9 mph N/A   Scattered Clouds